Weather in Ilovlya

Russia / Volgograd Oblast     49°18′04″N   43°58′58″E
temp.,
°C
wind,
m/s
gust,
m/s
humid.,
%
clouds,
%
prec.,
mm/h
press.,
hPa
HPBL,
m
17 may, mon
mon1700:00+20se493799 0.0 1012122
03:00+18ese484271 0.0 1011116
06:00+18ese412476 0.0 1012235
09:00+25ese7103417 0.0 1012440
12:00+30se9121986 0.0 10112836
15:00+31se811225 0.0 10103052
18:00+27ese5113369 0.0 1009229
21:00+21ese5103998 0.0 1010132
18 may, tue
tue1800:00+19ese4539100 0.0 101052
03:00+17e343530 0.0 100945
06:00+18e512431 0.0 1009274
09:00+25se713325 0.0 1008592
12:00+30se914228 0.0 10082084
15:00+32se9142119 0.0 10063680
18:00+26wsw3545100 0.0 100790
21:00+21ene124794 0.0 100812
19 may, wed
wed1900:00+20s114284 0.0 100813
03:00+17sse1156100 0.0 100814
06:00+18wsw226975 0.0 100892
09:00+22wnw215896 0.0 1008549
12:00+27ne2435100 0.0 10061249
15:00+29wsw3529100 0.0 10062093
18:00+21wsw7107199 1.1 1007409
21:00+16w61186100 2.4 1010538
20 may, thu
thu2000:00+14sw51186100 0.3 1011497
03:00+13sw499395 0.3 1013298
06:00+14ssw598695 0.0 1015387
09:00+16sw7877100 0.0 1015799
12:00+20sw565470 0.0 10161607
15:00+22wsw654752 0.0 10161871
18:00+20wsw455468 0.0 1017947
21:00+16wsw23720 0.0 101818
21 may, fri
fri2100:00+14w22780 0.0 101811
03:00+13nnw12848 0.0 101911
06:00+15ne227519 0.0 102099
09:00+20ne2256100 0.0 1020761
12:00+23nne22433 0.0 10201389
15:00+25ne22364 0.0 10191624
18:00+25nne2243100 0.0 101878
21:00+19ene22535 0.0 101911